Location: Unspecified
(0.0000°N, 0.0000°E)
Time: 17:54:42
(UTC+00:00)

Cosmos 367 - Visible Passes

Search period start: 06 October 2022 00:00
Search period end: 16 October 2022 00:00
Orbit: 916 x 1023 km, 65.3° (Epoch: 05 October)

Date Brightness Start Highest point End Pass type
(mag) Time Alt. Az. Time Alt. Az. Time Alt. Az.
06 Oct 8.5 02:38:16 13° ESE 02:38:16 13° ESE 02:39:00 10° ESE visible
06 Oct 7.1 04:22:51 24° SW 04:22:51 24° SW 04:26:20 10° SSW visible
07 Oct 8.1 03:02:25 17° SE 03:02:25 17° SE 03:03:40 10° SSE visible
08 Oct 8.1 03:26:23 14° S 03:26:23 14° S 03:27:12 10° S visible
